When you browse on this site, cookies collect data to enhance your experience and personalize the content and advertising you see.
Visit our Privacy Policy to learn more. By continuing to use the site, you agree to this use of cookies and data.
EN

Hourly Weather Tarasov

Today, 20 September, Sunday

Time Temperature Precipitation Wind Pressure Humidity
00:00 +10°C° 0 mm 4 mps 753 mmHg 59%
01:00 +10°C° 0 mm 4 mps 753 mmHg 62%
02:00 +9°C° 0 mm 3 mps 753 mmHg 64%
03:00 +8°C° 0 mm 3 mps 753 mmHg 67%
04:00 +8°C° 0 mm 3 mps 753 mmHg 68%
05:00 +8°C° 0 mm 3 mps 753 mmHg 69%
06:00 +8°C° 0 mm 3 mps 753 mmHg 70%
07:00 +11°C° 0 mm 4 mps 753 mmHg 61%
08:00 +13°C° 0 mm 4 mps 753 mmHg 52%
09:00 +16°C° 0 mm 5 mps 753 mmHg 43%
10:00 +19°C° 0 mm 6 mps 753 mmHg 39%
11:00 +21°C° 0 mm 6 mps 753 mmHg 35%
12:00 +22°C° 0 mm 7 mps 753 mmHg 31%
13:00 +23°C° 0 mm 7 mps 753 mmHg 29%
14:00 +23°C° 0 mm 7 mps 752 mmHg 27%
15:00 +24°C° 0 mm 7 mps 752 mmHg 25%
16:00 +22°C° 0 mm 6 mps 752 mmHg 28%
17:00 +21°C° 0 mm 5 mps 753 mmHg 30%
18:00 +19°C° 0 mm 4 mps 753 mmHg 33%
19:00 +17°C° 0 mm 4 mps 753 mmHg 38%
20:00 +15°C° 0 mm 4 mps 754 mmHg 43%
21:00 +13°C° 0 mm 4 mps 755 mmHg 49%
22:00 +12°C° 0 mm 4 mps 755 mmHg 52%
23:00 +11°C° 0 mm 3 mps 755 mmHg 56%

Tomorrow, 21 September, Monday

Time Temperature Precipitation Wind Pressure Humidity
00:00 +10°C° 0 mm 3 mps 756 mmHg 59%
01:00 +10°C° 0 mm 3 mps 756 mmHg 59%
02:00 +9°C° 0 mm 3 mps 756 mmHg 60%
03:00 +9°C° 0 mm 2 mps 757 mmHg 60%
04:00 +8°C° 0 mm 2 mps 757 mmHg 60%
05:00 +8°C° 0 mm 2 mps 757 mmHg 60%
06:00 +7°C° 0 mm 2 mps 757 mmHg 60%
07:00 +10°C° 0 mm 2 mps 758 mmHg 52%
08:00 +12°C° 0 mm 3 mps 758 mmHg 44%
09:00 +16°C° 0 mm 3 mps 758 mmHg 36%
10:00 +17°C° 0 mm 3 mps 758 mmHg 32%
11:00 +18°C° 0 mm 3 mps 758 mmHg 28%
12:00 +20°C° 0 mm 2 mps 757 mmHg 24%
13:00 +20°C° 0 mm 2 mps 757 mmHg 22%
14:00 +21°C° 0 mm 2 mps 757 mmHg 20%
15:00 +23°C° 0 mm 2 mps 756 mmHg 18%
16:00 +20°C° 0 mm 2 mps 756 mmHg 21%
17:00 +19°C° 0 mm 2 mps 756 mmHg 23%
18:00 +18°C° 0 mm 1 mps 756 mmHg 26%
19:00 +16°C° 0 mm 2 mps 756 mmHg 28%
20:00 +13°C° 0 mm 3 mps 756 mmHg 30%
21:00 +12°C° 0 mm 3 mps 757 mmHg 33%
22:00 +12°C° 0 mm 3 mps 757 mmHg 33%
23:00 +11°C° 0 mm 3 mps 757 mmHg 34%

Day after tomorrow, 22 September, Tuesday

Time Temperature Precipitation Wind Pressure Humidity
00:00 +11°C° 0 mm 3 mps 757 mmHg 34%
01:00 +12°C° 0 mm 2 mps 757 mmHg 35%
02:00 +10°C° 0 mm 2 mps 756 mmHg 35%
03:00 +10°C° 0 mm 2 mps 756 mmHg 36%
04:00 +11°C° 0 mm 1 mps 757 mmHg 37%
05:00 +10°C° 0 mm 1 mps 757 mmHg 39%
06:00 +10°C° 0 mm 1 mps 757 mmHg 40%
07:00 +13°C° 0 mm 1 mps 757 mmHg 36%
08:00 +16°C° 0 mm 2 mps 757 mmHg 32%
09:00 +19°C° 0 mm 2 mps 758 mmHg 28%
10:00 +20°C° 0 mm 2 mps 757 mmHg 24%
11:00 +23°C° 0 mm 2 mps 757 mmHg 21%
12:00 +24°C° 0 mm 2 mps 757 mmHg 18%
13:00 +25°C° 0 mm 2 mps 757 mmHg 17%
14:00 +25°C° 0 mm 2 mps 756 mmHg 16%
15:00 +26°C° 0 mm 2 mps 756 mmHg 15%
16:00 +24°C° 0 mm 2 mps 756 mmHg 17%
17:00 +21°C° 0 mm 2 mps 756 mmHg 19%
18:00 +19°C° 0 mm 2 mps 756 mmHg 21%
19:00 +18°C° 0 mm 2 mps 756 mmHg 22%
20:00 +17°C° 0 mm 2 mps 756 mmHg 23%
21:00 +16°C° 0 mm 2 mps 756 mmHg 24%
22:00 +15°C° 0 mm 2 mps 756 mmHg 25%
23:00 +15°C° 0 mm 2 mps 756 mmHg 26%

23 September, Wednesday

Time Temperature Precipitation Wind Pressure Humidity
00:00 +14°C° 0 mm 2 mps 756 mmHg 27%
01:00 +14°C° 0 mm 2 mps 756 mmHg 29%
02:00 +14°C° 0 mm 2 mps 756 mmHg 32%
03:00 +13°C° 0 mm 2 mps 756 mmHg 34%
04:00 +13°C° 0 mm 2 mps 756 mmHg 40%
05:00 +13°C° 0 mm 2 mps 756 mmHg 45%
06:00 +13°C° 0 mm 2 mps 756 mmHg 51%
07:00 +15°C° 0 mm 2 mps 756 mmHg 51%
08:00 +18°C° 0 mm 2 mps 756 mmHg 52%
09:00 +20°C° 0 mm 2 mps 756 mmHg 52%
10:00 +22°C° 0 mm 3 mps 756 mmHg 43%
11:00 +25°C° 0 mm 3 mps 756 mmHg 35%
12:00 +26°C° 0 mm 4 mps 755 mmHg 26%
13:00 +27°C° 0 mm 4 mps 755 mmHg 25%
14:00 +28°C° 0 mm 4 mps 754 mmHg 24%
15:00 +28°C° 0 mm 4 mps 754 mmHg 22%
16:00 +27°C° 0 mm 3 mps 754 mmHg 25%
17:00 +25°C° 0 mm 3 mps 753 mmHg 28%
18:00 +22°C° 0 mm 3 mps 753 mmHg 30%
19:00 +21°C° 0 mm 3 mps 753 mmHg 32%
20:00 +20°C° 0 mm 3 mps 753 mmHg 33%
21:00 +18°C° 0 mm 3 mps 754 mmHg 35%
22:00 +18°C° 0 mm 3 mps 754 mmHg 36%
23:00 +17°C° 0 mm 3 mps 753 mmHg 37%

24 September, Thursday

Time Temperature Precipitation Wind Pressure Humidity
00:00 +17°C° 0 mm 3 mps 753 mmHg 39%
01:00 +16°C° 0 mm 3 mps 753 mmHg 42%
02:00 +16°C° 0 mm 3 mps 753 mmHg 45%
03:00 +14°C° 0 mm 3 mps 753 mmHg 48%
04:00 +14°C° 0 mm 3 mps 753 mmHg 50%
05:00 +13°C° 0 mm 3 mps 754 mmHg 52%
06:00 +13°C° 0 mm 3 mps 754 mmHg 53%
07:00 +17°C° 0 mm 4 mps 754 mmHg 47%
08:00 +19°C° 0 mm 5 mps 754 mmHg 40%
09:00 +22°C° 0 mm 5 mps 754 mmHg 34%
10:00 +24°C° 0 mm 6 mps 754 mmHg 31%
11:00 +26°C° 0 mm 6 mps 753 mmHg 28%
12:00 +28°C° 0 mm 6 mps 753 mmHg 25%
13:00 +29°C° 0 mm 6 mps 753 mmHg 24%
14:00 +29°C° 0 mm 7 mps 753 mmHg 24%
15:00 +30°C° 0 mm 7 mps 753 mmHg 24%
16:00 +28°C° 0 mm 6 mps 752 mmHg 26%
17:00 +27°C° 0 mm 5 mps 752 mmHg 29%
18:00 +25°C° 0 mm 4 mps 752 mmHg 31%
19:00 +23°C° 0 mm 5 mps 752 mmHg 32%
20:00 +22°C° 0 mm 5 mps 752 mmHg 33%
21:00 +21°C° 0 mm 6 mps 753 mmHg 35%
22:00 +20°C° 0 mm 5 mps 753 mmHg 38%
23:00 +19°C° 0 mm 5 mps 753 mmHg 41%

25 September, Friday

Time Temperature Precipitation Wind Pressure Humidity
00:00 +19°C° 0 mm 5 mps 752 mmHg 45%
01:00 +17°C° 0 mm 5 mps 752 mmHg 45%
02:00 +16°C° 0 mm 5 mps 752 mmHg 46%
03:00 +16°C° 0 mm 5 mps 752 mmHg 46%
04:00 +16°C° 0 mm 5 mps 752 mmHg 45%
05:00 +15°C° 0 mm 5 mps 753 mmHg 45%
06:00 +15°C° 0 mm 5 mps 753 mmHg 44%
07:00 +17°C° 0 mm 6 mps 753 mmHg 39%
08:00 +21°C° 0 mm 7 mps 753 mmHg 34%
09:00 +23°C° 0 mm 7 mps 753 mmHg 29%
10:00 +26°C° 0 mm 8 mps 753 mmHg 26%
11:00 +27°C° 0 mm 8 mps 753 mmHg 23%
12:00 +29°C° 0 mm 8 mps 752 mmHg 20%
13:00 +31°C° 0 mm 8 mps 752 mmHg 20%
14:00 +31°C° 0 mm 8 mps 752 mmHg 19%
15:00 +31°C° 0 mm 8 mps 751 mmHg 18%
16:00 +29°C° 0 mm 7 mps 751 mmHg 20%
17:00 +27°C° 0 mm 6 mps 751 mmHg 22%
18:00 +26°C° 0 mm 5 mps 751 mmHg 23%
19:00 +25°C° 0 mm 5 mps 751 mmHg 24%
20:00 +23°C° 0 mm 5 mps 751 mmHg 25%
21:00 +22°C° 0 mm 6 mps 751 mmHg 26%
22:00 +21°C° 0 mm 6 mps 751 mmHg 30%
23:00 +20°C° 0 mm 6 mps 751 mmHg 33%
Show more